Rome, NY

5:12 AM EDT on August 23, 2017 (GMT -0400)
Griffiss

Weather History for KRME - February, 2014

Change the Weather History Date:

Wednesday, February 5, 2014

  Actual Average Record
Temperature  
Mean Temperature 20 °F -  
Max Temperature 27 °F 27 °F 45 °F (1991)
Min Temperature 12 °F 9 °F -9 °F (2015)
Degree Days  
Heating Degree Days 44    
Moisture  
Dew Point 19 °F    
Average Humidity 83    
Maximum Humidity 92    
Minimum Humidity 66    
Precipitation  
Precipitation 0.58 in - - ()
Sea Level Pressure  
Sea Level Pressure 29.96 in    
Wind  
Wind Speed 5 mph (ENE)    
Max Wind Speed 14 mph    
Max Gust Speed 24 mph    
Visibility 2 miles    
Events Fog , Snow    
Averages and records for this station are not official NWS values.
T = Trace of Precipitation, MM = Missing Value Source: NWS Daily Summary

Daily Weather History Graph

Daily Weather History Graph

Search for Another Location

Airport or City:

Trip Planner

Search our weather history database for the weather conditions in past years. The results will help you decide how hot, cold, wet, or windy it might be!

Date:

Astronomy

Feb. 05, 2014 Rise Set
Actual Time 7:12 AM EST 5:19 PM EST
Civil Twilight 6:42 AM EST 5:49 PM EST
Nautical Twilight 6:08 AM EST 6:23 PM EST
Astronomical Twilight 5:35 AM EST 6:56 PM EST
Moon 10:14 AM EST (2/5) No Moon Set
Length of Visible Light 11h 06m
Length of Day
10h 06m
Waxing Crescent, 39% of the Moon is Illuminated
Feb 5
Waxing Crescent
Feb 6
First Quarter
Feb 14
Full
Feb 22
Last Quarter
Mar 1
New

Hourly Weather History & Observations

Time (EST) Temp. Windchill Dew Point Humidity Pressure Visibility Wind Dir Wind Speed Gust Speed Precip Events Conditions
12:53 AM 25.0 °F - 15.1 °F 66% 30.30 in 10.0 mi Calm Calm - N/A   Overcast
1:35 AM 24.1 °F 19.7 °F 16.0 °F 71% 30.23 in 2.5 mi ESE 3.5 mph - 0.00 in Snow Light Snow
1:48 AM 24.8 °F 20.5 °F 17.6 °F 74% 30.23 in 1.8 mi SE 3.5 mph - 0.00 in Snow Light Snow
1:53 AM 23.0 °F 18.4 °F 18.0 °F 81% 30.25 in 1.2 mi SSE 3.5 mph - 0.00 in Snow Light Snow
2:17 AM 23.0 °F 15.8 °F 19.0 °F 85% 30.23 in 1.0 mi ESE 5.8 mph - 0.01 in Snow Light Snow
2:29 AM 23.0 °F 15.8 °F 19.0 °F 85% 30.22 in 0.8 mi ESE 5.8 mph - 0.02 in Snow Light Snow
2:53 AM 21.9 °F 14.5 °F 19.0 °F 89% 30.23 in 1.0 mi East 5.8 mph - 0.04 in Snow Light Snow
3:27 AM 23.0 °F 14.7 °F 19.0 °F 85% 30.17 in 0.8 mi East 6.9 mph - 0.02 in Snow Light Snow
3:48 AM 23.0 °F 15.8 °F 19.4 °F 86% 30.15 in 1.0 mi East 5.8 mph - 0.03 in Snow Light Snow
3:53 AM 23.0 °F 17.0 °F 19.0 °F 85% 30.17 in 1.0 mi ENE 4.6 mph - 0.04 in Snow Light Snow
4:33 AM 23.0 °F 18.4 °F 19.9 °F 88% 30.14 in 0.8 mi ESE 3.5 mph - 0.02 in Snow Light Snow
4:53 AM 23.0 °F 18.4 °F 19.9 °F 88% 30.17 in 0.8 mi SE 3.5 mph - 0.04 in Snow Light Snow
5:21 AM 23.0 °F - 19.9 °F 88% 30.14 in 0.5 mi Calm Calm - 0.03 in Fog , Snow Snow
5:53 AM 23.0 °F 15.8 °F 19.9 °F 88% 30.13 in 0.8 mi East 5.8 mph - 0.07 in Snow Light Snow
6:21 AM 23.0 °F 14.7 °F 19.9 °F 88% 30.09 in 0.8 mi East 6.9 mph - 0.02 in Snow Light Snow
6:29 AM 23.0 °F 14.7 °F 19.9 °F 88% 30.09 in 1.0 mi East 6.9 mph - 0.02 in Snow Light Snow
6:48 AM 23.0 °F 15.8 °F 19.4 °F 86% 30.06 in 1.0 mi ESE 5.8 mph - 0.03 in Snow Light Snow
6:53 AM 23.0 °F 17.0 °F 19.9 °F 88% 30.07 in 1.2 mi East 4.6 mph - 0.04 in Snow Light Snow
7:39 AM 23.0 °F 14.7 °F 19.9 °F 88% 30.02 in 0.8 mi East 6.9 mph - 0.01 in Snow Light Snow
7:53 AM 23.0 °F 14.7 °F 19.9 °F 88% 30.01 in 1.2 mi East 6.9 mph - 0.02 in Snow Light Snow
8:53 AM 24.1 °F 18.2 °F 19.9 °F 84% 29.97 in 1.8 mi East 4.6 mph - 0.00 in Snow Light Snow
9:07 AM 24.1 °F 16.0 °F 19.9 °F 84% 29.95 in 2.5 mi East 6.9 mph - 0.01 in Snow Light Snow
9:22 AM 25.0 °F 16.3 °F 19.9 °F 81% 29.94 in 1.5 mi East 8.1 mph - 0.01 in Snow Light Snow
9:30 AM 25.0 °F 16.3 °F 19.9 °F 81% 29.93 in 1.2 mi East 8.1 mph - 0.01 in Snow Light Snow
9:41 AM 25.0 °F 16.3 °F 19.9 °F 81% 29.90 in 3.0 mi East 8.1 mph - 0.01 in Snow Light Snow
9:53 AM 25.0 °F 15.5 °F 21.0 °F 85% 29.91 in 4.0 mi East 9.2 mph - 0.01 in Snow Light Snow
10:53 AM 27.0 °F 15.6 °F 21.0 °F 78% 29.82 in 3.0 mi East 13.8 mph - 0.00 in Snow Light Snow
11:53 AM 27.0 °F 16.7 °F 21.0 °F 78% 29.78 in 3.0 mi ESE 11.5 mph 24.2 mph 0.00 in Snow Light Snow
11:59 AM 27.0 °F 18.7 °F 21.0 °F 78% 29.76 in 1.8 mi East 8.1 mph 20.7 mph 0.00 in Snow Light Snow
12:17 PM 27.0 °F 18.0 °F 21.9 °F 81% 29.73 in 0.8 mi East 9.2 mph - 0.00 in Snow Light Snow
12:31 PM 26.1 °F 20.5 °F 23.0 °F 88% 29.79 in 0.5 mi West 4.6 mph - 0.01 in Fog , Snow Snow
12:41 PM 26.1 °F 20.5 °F 23.0 °F 88% 29.77 in 0.2 mi NW 4.6 mph - 0.02 in Fog , Snow Snow
12:53 PM 26.1 °F 20.5 °F 23.0 °F 88% 29.79 in 0.2 mi North 4.6 mph - 0.04 in Fog , Snow Snow
1:19 PM 26.1 °F 20.5 °F 24.1 °F 92% 29.77 in 0.2 mi NNE 4.6 mph - 0.05 in Fog , Snow Heavy Snow
1:53 PM 26.1 °F 20.5 °F 23.0 °F 88% 29.77 in 0.2 mi NE 4.6 mph - 0.17 in Fog , Snow Heavy Snow
2:25 PM 26.1 °F 19.4 °F 23.0 °F 88% 29.73 in 0.2 mi NNE 5.8 mph - 0.07 in Fog , Snow Heavy Snow
2:37 PM 26.1 °F - 21.9 °F 84% 29.73 in 0.5 mi Calm Calm - 0.08 in Fog , Snow Snow
2:49 PM 26.6 °F 22.6 °F 23.0 °F 86% 29.72 in 0.8 mi Variable 3.5 mph - 0.08 in Snow Light Snow
2:53 PM 26.1 °F - 23.0 °F 88% 29.73 in 1.0 mi Calm Calm - 0.08 in Snow Light Snow
3:13 PM 27.0 °F 21.6 °F 23.0 °F 85% 29.71 in 1.5 mi ESE 4.6 mph - 0.01 in Snow Light Snow
3:44 PM 27.0 °F - 24.1 °F 89% 29.71 in 1.5 mi Calm Calm - 0.01 in Snow Light Snow
3:53 PM 27.0 °F - 24.1 °F 89% 29.73 in 1.5 mi Calm Calm - 0.01 in Snow Light Snow
4:02 PM 27.0 °F - 24.1 °F 89% 29.71 in 1.5 mi Calm Calm - 0.00 in Snow Light Snow
4:53 PM 26.1 °F 17.6 °F 23.0 °F 88% 29.76 in 1.5 mi NNW 8.1 mph - 0.01 in Snow Light Snow
5:53 PM 21.0 °F 9.3 °F 17.1 °F 85% 29.82 in 1.2 mi North 11.5 mph - 0.00 in Snow Light Snow
6:14 PM 19.9 °F 7.3 °F 15.1 °F 81% 29.81 in 1.0 mi North 12.7 mph - 0.00 in Snow Light Snow
6:49 PM 19.4 °F 7.2 °F 14.0 °F 80% 29.85 in 1.8 mi North 11.5 mph - 0.01 in Snow Light Snow
6:53 PM 19.0 °F 7.5 °F 14.0 °F 81% 29.87 in 2.0 mi North 10.4 mph - 0.01 in Snow Light Snow
7:04 PM 19.0 °F 10.0 °F 12.9 °F 77% 29.85 in 4.0 mi Variable 6.9 mph - 0.00 in Snow Light Snow
7:53 PM 18.0 °F 8.7 °F 10.0 °F 71% 29.93 in 10.0 mi WNW 6.9 mph - 0.00 in   Overcast
8:53 PM 17.1 °F 4.3 °F 8.1 °F 68% 30.00 in 10.0 mi NW 11.5 mph - N/A   Overcast
9:53 PM 17.1 °F 3.6 °F 8.1 °F 68% 30.06 in 10.0 mi NNW 12.7 mph 24.2 mph 0.00 in Snow Light Snow
10:53 PM 15.1 °F 4.2 °F 6.1 °F 68% 30.12 in 10.0 mi NNW 8.1 mph - 0.00 in   Mostly Cloudy
11:51 PM 14.0 °F 1.2 °F 5.0 °F 67% 30.13 in 10.0 mi NW 10.4 mph - N/A   Overcast
11:53 PM 12.9 °F -1.6 °F 5.0 °F 71% 30.16 in 10.0 mi NW 12.7 mph - N/A   Overcast